Location: Fort Wayne
(41.1310°N, 85.1290°W)
Time: 18:02:15
(UTC-04:00)

ISS - Visible Passes

Search period start: 25 April 2018 00:00
Search period end: 05 May 2018 00:00
Orbit: 403 x 406 km, 51.6° (Epoch: 26 April)

Date Brightness Start Highest point End Pass type
(mag) Time Alt. Az. Time Alt. Az. Time Alt. Az.
01 May -1.4 05:28:53 10° S 05:31:04 17° SE 05:33:14 10° E visible
03 May -2.9 05:20:44 20° SSW 05:22:36 40° SE 05:25:42 10° ENE visible
04 May -1.9 04:30:28 21° SE 04:30:28 21° SE 04:32:56 10° E visible
